RH
43 56 65 70 66 52 48 46 44 44 44 64 48 58 42 68 100 100 88 85 96 95 85 82 72 61 57 54 45 34 22 18 17 18 20 22 22 25 32 35 32 33 33
34 54 58 65 78 64 58 55 53 52 47 51 48 80 66 44 91 100 100 100 100 100 95 78 64 55 61 49 44 34 23 18 18 18 20 22 29 34 31 35 36 32 31
22 34 52 47 95 82 66 58 59 60 56 49 49 48 76 43 64 96 100 100 100 100 98 76 61 59 54 49 40 31 27 22 18 20 24 29 32 33 34 36 34 31 31
22 20 33 31 63 95 95 78 56 66 62 59 52 52 60 62 46 56 95 100 100 91 86 72 59 58 53 46 36 31 27 24 22 24 26 31 31 34 33 36 36 35 33
21 18 18 25 33 59 90 94 77 66 63 62 56 59 56 72 80 58 55 61 86 76 74 63 60 47 48 43 34 32 29 26 24 28 31 34 37 34 38 42 39 37 40
18 18 17 18 22 32 47 75 82 78 73 62 60 66 67 57 57 54 55 48 49 46 41 50 46 43 41 35 36 35 32 29 28 29 34 36 39 39 39 45 41 42 42
18 17 17 16 20 25 27 39 68 75 84 73 64 64 66 68 66 59 58 53 51 50 47 47 43 43 36 33 37 36 36 37 32 31 36 35 37 39 37 41 43 46 43
33 16 15 15 16 23 27 28 40 77 81 76 70 68 65 70 76 70 66 59 53 60 57 53 47 53 45 46 47 48 41 40 39 31 35 36 43 42 38 41 43 49 48
37 22 22 14 15 16 24 21 27 51 79 76 71 71 69 70 79 77 74 67 50 54 62 64 56 56 57 55 55 57 48 48 43 41 38 39 41 44 41 46 54 55 53
54 61 43 39 22 15 19 17 39 57 97 90 77 73 69 72 70 79 79 77 72 61 62 64 62 57 59 58 56 60 54 48 43 45 51 49 48 46 47 49 55 60 57
50 77 82 74 90 64 26 20 20 87 100 100 91 75 75 81 72 72 82 82 74 70 69 70 68 58 56 58 59 63 62 54 47 52 53 56 58 56 53 67 66 55 88
23 34 87 87 78 100 94 29 18 30 70 96 94 87 86 84 76 68 81 87 86 71 62 76 75 68 70 76 74 68 65 69 68 57 70 95 82 84 71 68 75 72 91
44 28 42 61 86 82 100 99 22 19 32 63 72 87 96 97 85 83 82 85 85 91 72 80 82 73 73 87 75 67 65 95 90 88 82 91 85 70 63 66 78 72 60
59 58 29 61 80 84 96 100 93 19 18 32 100 93 100 100 91 91 85 78 78 91 90 88 83 92 76 76 78 74 91 100 100 100 95 72 57 52 59 54 60 63 65
51 57 40 25 46 43 93 100 100 100 31 19 43 97 100 100 100 87 95 97 93 98 100 100 100 99 95 86 73 69 68 86 93 100 100 95 97 67 73 69 61 74 81
50 57 52 35 22 27 88 100 100 100 99 24 18 31 97 90 94 91 83 100 98 95 100 100 99 98 100 91 96 100 100 100 98 100 100 84 86 96 87 77 88 97 93
39 48 54 56 41 21 65 95 91 87 93 40 20 16 24 54 72 89 94 100 100 100 100 100 94 97 100 99 99 100 100 99 100 100 82 97 100 100 82 86 100 100 96
35 39 45 52 46 26 29 96 91 77 74 75 36 20 20 25 50 67 84 100 100 100 100 100 93 84 100 100 100 100 99 88 98 100 100 100 100 99 71 100 100 100 98
26 35 39 44 46 29 22 87 90 78 65 54 44 27 29 37 42 64 86 97 100 100 100 100 100 100 100 100 100 100 100 100 97 95 100 94 98 96 88 100 100 98 69
20 24 31 30 32 18 24 29 48 63 50 56 25 37 100 100 98 99 97 100 100 100 100 100 100 100 100 100 100 100 100 78 75 73 92 100 98 100 100 100 97 78 62
11 16 22 22 23 14 12 21 72 64 78 57 39 82 97 100 87 64 100 100 100 100 100 100 100 100 100 100 100 100 100 75 75 87 91 90 100 100 91 88 73 67 53
7 12 13 15 12 11 8 24 76 64 100 88 72 78 86 100 98 100 100 100 100 100 100 100 100 100 100 100 100 100 82 71 91 95 100 100 100 100 100 79 67 59 50
5 8 10 11 12 8 7 10 20 39 100 72 97 99 100 100 100 100 100 100 100 100 100 100 100 100 100 100 100 88 76 82 100 100 100 100 98 86 74 69 61 49 46
3 5 6 6 5 6 6 6 16 52 85 98 100 100 100 100 100 100 100 100 100 100 100 100 100 100 100 100 79 80 97 79 97 95 100 100 99 85 75 74 52 42 42
2 3 4 4 4 4 4 6 20 86 90 100 100 100 100 100 100 100 100 100 100 100 100 100 100 97 96 84 100 100 98 78 80 100 100 100 98 78 76 68 57 48 41
2 3 4 3 3 3 4 6 28 100 96 100 100 100 98 100 100 100 97 100 100 100 100 100 94 100 100 100 100 100 80 74 100 100 100 100 95 91 90 76 62 63 45
Wind_Speed
54 51 47 46 43 41 40 36 35 33 30 30 26 23 21 21 16 17 17 17 17 14 14 16 19 20 19 18 22 24 23 23 23 21 21 19 14 11 10 11 13 17 18
60 57 53 49 47 44 42 39 37 35 33 32 30 27 26 22 22 18 19 20 20 17 18 20 22 23 22 20 21 24 23 21 20 20 21 13 10 9 10 13 16 17 19
55 56 57 54 51 47 45 41 38 38 35 35 32 31 30 26 27 25 21 21 23 24 23 24 26 27 26 22 22 21 22 22 19 18 13 10 10 10 13 16 18 19 22
53 50 50 55 56 51 46 44 41 40 38 35 34 32 30 27 25 26 26 25 27 28 26 27 29 29 27 23 22 20 20 20 17 12 11 12 11 12 15 17 19 22 25
56 55 51 50 55 55 52 49 45 42 41 38 36 35 32 29 29 28 27 29 29 30 30 29 29 29 26 23 21 20 20 20 16 11 12 13 13 15 17 20 21 25 28
56 53 52 52 51 53 56 53 50 45 44 41 38 37 34 31 30 30 30 30 29 29 26 21 22 24 23 22 23 21 18 19 17 14 13 13 14 16 18 21 24 28 29
56 55 54 51 51 50 51 58 52 49 46 45 42 40 37 33 30 29 30 32 29 28 23 19 19 22 22 22 22 20 18 18 18 16 15 17 18 19 21 26 27 28 28
50 56 57 54 53 54 49 52 56 54 50 48 46 43 41 37 33 32 32 29 27 24 21 19 19 21 23 20 19 18 19 19 19 19 18 19 22 23 25 26 28 28 32
34 48 53 55 51 50 49 48 50 55 55 51 48 47 45 40 37 34 33 32 27 22 22 19 21 20 21 20 21 22 23 23 21 21 22 22 23 24 26 26 28 31 33
34 35 43 51 55 51 49 49 48 54 56 54 52 51 48 45 41 38 35 33 31 26 21 21 22 22 23 23 25 25 24 23 22 22 22 24 26 27 27 30 32 32 31
45 33 38 44 43 46 55 55 53 55 53 53 53 54 52 49 47 42 38 35 33 29 25 22 22 24 25 25 25 24 22 19 20 20 22 24 27 30 31 35 38 33 35
51 47 39 43 38 37 44 54 57 58 57 56 55 56 55 53 51 47 42 40 37 32 28 24 23 23 25 24 24 23 19 19 20 22 22 25 30 31 37 40 41 38 35
52 66 52 55 44 36 38 46 57 59 59 59 60 61 58 57 55 51 47 44 39 37 32 29 28 25 24 25 25 25 22 24 24 25 26 28 31 35 37 41 42 42 39
50 50 54 57 50 41 40 42 51 60 59 59 56 62 61 60 59 54 52 47 43 40 36 35 32 31 28 27 28 28 30 30 33 30 36 36 39 40 41 44 44 43 41
57 52 59 62 63 54 48 44 47 56 64 63 62 61 60 63 60 58 55 50 45 43 41 38 38 35 34 34 33 35 35 36 34 36 41 41 43 43 43 46 48 42 42
60 57 62 68 76 58 62 53 49 54 58 63 62 62 64 63 63 61 57 53 50 47 45 42 41 40 39 39 39 40 41 38 39 40 44 44 45 46 46 48 46 43 46
68 64 68 70 75 64 65 62 58 54 55 62 65 58 60 63 64 63 60 58 55 53 50 46 45 44 43 44 46 44 45 43 45 44 44 46 49 49 49 46 46 48 50
69 72 70 77 78 68 66 67 63 58 56 58 61 60 63 64 66 63 61 61 60 57 54 51 50 49 47 47 48 48 50 50 52 50 49 48 52 50 50 46 48 50 53
78 72 74 77 84 85 69 68 67 67 64 63 60 56 57 63 64 59 61 62 63 62 57 56 54 53 51 51 53 53 54 52 57 51 50 51 53 54 47 49 51 56 56
91 78 83 90 91 83 70 69 71 71 68 66 64 54 53 51 52 49 53 59 65 63 61 60 58 57 56 56 55 55 53 57 56 59 56 53 54 47 48 51 53 54 55
89 95 87 95 93 88 78 65 74 73 70 68 57 61 54 53 53 54 51 56 63 64 62 59 62 60 56 56 57 54 55 57 56 58 58 55 49 47 49 51 53 54 55
92 81 93 100 97 94 65 65 74 71 69 66 62 64 58 55 51 45 41 45 55 60 62 60 59 60 59 57 56 59 61 56 53 54 54 51 50 51 53 56 59 61 62
94 94 85 93 98 96 69 68 69 75 76 66 57 57 62 51 50 49 48 46 46 44 55 56 53 57 57 58 59 61 59 56 58 55 50 53 52 51 55 58 62 65 65
87 87 96 101 95 87 77 81 72 79 74 60 56 62 60 51 48 50 47 45 43 45 44 51 59 54 58 60 60 61 59 60 59 57 53 54 57 56 57 59 62 64 64
82 86 91 91 80 74 81 72 73 87 80 71 63 60 58 53 51 53 52 53 46 45 44 48 49 54 56 57 56 58 60 61 62 55 58 59 60 61 61 62 61 66 67
75 76 81 76 73 63 72 79 82 97 86 82 69 69 62 60 55 54 57 57 48 48 47 49 50 48 48 52 55 57 62 60 58 59 62 62 64 65 62 65 69 69 69
Wind_Direction
240 240 241 241 238 239 240 240 244 245 245 248 249 246 246 240 234 245 242 249 252 254 273 281 301 306 320 322 326 324 323 325 325 327 325 330 337 349 351 349 345 351 349
240 238 239 243 243 240 239 238 241 244 243 245 246 246 246 244 235 239 246 249 252 263 279 291 291 299 307 321 318 322 321 320 322 328 324 330 342 335 333 345 348 348 347
243 241 244 239 239 241 241 239 237 243 244 245 248 250 247 247 239 240 242 248 249 272 284 293 294 296 303 310 312 312 315 313 318 325 326 321 317 321 333 338 342 347 344
241 242 241 240 235 237 239 241 239 239 242 243 245 249 248 248 245 243 249 255 263 271 285 293 294 296 300 304 305 305 310 312 315 318 309 304 305 322 329 337 340 339 337
239 241 239 239 239 237 237 238 240 240 242 242 245 245 249 244 250 254 254 254 264 271 280 286 291 292 297 297 299 304 308 308 304 295 301 302 309 321 329 332 332 331 331
237 241 240 237 238 240 239 239 238 239 242 243 242 244 246 250 250 254 259 262 266 272 280 284 287 290 293 292 294 301 304 304 298 295 299 299 303 312 319 323 322 327 329
236 237 241 237 235 238 241 238 235 237 240 242 243 243 245 247 253 256 259 262 265 273 275 276 287 290 290 293 291 295 296 300 296 294 293 297 297 303 313 320 322 324 331
242 239 240 240 235 232 235 236 238 238 235 239 242 242 245 246 249 257 262 263 262 268 273 279 284 289 291 290 286 291 298 299 298 292 291 296 298 304 314 318 318 322 326
244 244 242 239 238 237 232 235 234 236 237 237 240 242 243 246 248 252 259 264 262 268 273 277 282 282 284 281 281 286 296 296 294 295 296 296 296 300 311 316 320 320 322
241 245 243 245 242 238 237 238 231 234 232 233 239 242 243 247 248 249 253 260 265 265 272 277 284 282 281 284 277 283 294 298 290 296 298 297 297 301 307 313 318 317 320
232 234 235 240 240 241 241 240 234 231 233 233 234 240 243 244 248 249 252 255 263 267 269 277 285 281 281 281 281 278 289 299 304 301 297 293 296 301 307 311 317 312 317
243 228 219 226 224 234 241 239 238 233 236 235 237 237 241 244 247 251 251 256 258 264 268 276 280 281 281 280 277 280 282 293 298 302 296 306 302 304 311 312 310 309 307
256 261 225 219 218 225 238 239 235 234 235 236 239 238 240 243 246 249 251 253 257 261 264 267 274 277 277 278 276 277 278 295 298 297 300 299 304 302 307 311 307 306 306
250 254 250 213 212 219 228 229 234 233 235 232 234 235 237 240 245 247 251 253 257 260 264 266 270 275 273 276 275 277 284 291 288 290 305 301 302 305 308 308 311 309 302
246 250 254 233 220 231 214 218 227 229 234 234 233 236 236 237 242 247 248 251 254 258 261 265 269 272 274 274 274 278 286 293 294 299 303 300 298 303 303 306 309 305 303
239 243 244 250 232 229 225 213 220 224 228 230 234 235 236 237 240 245 249 250 253 256 259 262 267 271 273 274 279 281 285 288 291 298 298 298 299 299 303 307 306 300 294
232 238 240 244 248 247 219 222 216 221 221 223 230 232 235 237 238 241 247 250 252 254 257 260 265 271 275 277 280 284 286 286 287 291 292 298 299 297 304 303 295 294 295
229 234 239 240 244 243 226 223 223 222 218 218 225 228 233 236 238 240 244 248 251 251 254 257 263 268 271 275 278 281 284 284 288 291 291 295 300 293 301 294 289 293 297
229 236 236 237 241 246 230 221 222 218 222 218 219 222 228 231 236 239 242 248 248 249 253 259 263 266 267 272 275 279 283 288 289 287 288 292 293 293 295 290 287 294 300
223 228 233 233 238 241 221 222 233 228 228 219 217 218 220 225 233 236 243 245 247 249 254 258 263 269 270 270 273 278 283 286 286 288 286 290 290 287 289 286 291 295 300
234 224 229 233 237 242 238 237 222 225 217 218 210 216 221 234 235 248 240 244 246 250 254 260 265 265 270 272 273 278 282 286 289 286 283 286 283 287 288 287 293 298 302
243 231 230 233 237 238 230 220 222 222 213 213 216 216 226 231 238 234 235 240 246 250 251 261 263 264 268 272 274 278 280 283 287 287 283 279 279 284 291 294 297 300 302
240 236 234 234 236 243 239 216 222 222 214 210 212 212 219 226 230 239 241 243 245 247 254 257 264 266 268 271 272 274 277 280 286 283 274 272 280 284 287 294 301 301 302
241 237 235 239 245 248 231 226 229 217 204 199 202 215 227 226 233 236 234 237 237 241 248 258 259 255 264 264 269 273 278 280 281 280 270 276 278 284 293 295 301 302 303
239 236 236 242 244 242 242 234 224 210 201 198 197 215 217 219 225 230 233 235 234 243 251 258 256 255 261 268 269 272 276 280 281 271 270 275 281 285 289 294 299 303 305
235 231 232 238 237 240 238 234 214 204 201 205 202 209 210 218 227 234 236 236 237 241 247 253 258 257 259 266 271 274 275 277 277 269 272 276 278 283 290 292 298 303 306